GW3148 Weather Reports


time (UTC)temp
C
wind
direction
speed
KPH
gust
KPH
rain 1hr
cm
rain 24hr
cm
rain mn
cm
humidity
%
barometer
mb
20260507155709 16 45 6.4 11.3 0.00 0.81 0.81 85 1009.4
20260507155210 16 68 6.4 11.3 0.00 0.81 0.81 85 1009.4
20260507154709 16 45 6.4 11.3 0.03 0.81 0.81 86 1009.2
20260507154209 16 45 6.4 12.9 0.03 0.81 0.81 87 1009.2
20260507153209 16 45 4.8 12.9 0.05 0.81 0.81 88 1009.4
20260507152709 16 45 4.8 11.3 0.13 0.81 0.81 88 1009.5
20260507152209 16 45 3.2 14.5 0.18 0.81 0.81 88 1009.2
20260507151709 16 90 3.2 17.7 0.23 0.81 0.81 89 1009.5
20260507151209 16 68 3.2 17.7 0.30 0.81 0.81 89 1009.4
20260507150709 16 68 8.0 17.7 0.46 0.81 0.81 89 1009.2
20260507150209 16 113 8.0 17.7 0.56 0.81 0.81 89 1009.4
20260507145709 16 68 8.0 14.5 0.61 0.81 0.81 89 1009.2
20260507145209 15 90 8.0 14.5 0.64 0.81 0.81 88 1009.3
20260507144709 15 90 9.7 12.9 0.61 0.79 0.79 89 1009.3
20260507144209 15 68 6.4 11.3 0.61 0.79 0.79 89 1009.4
20260507143709 15 68 6.4 11.3 0.61 0.79 0.79 89 1009.5
20260507143209 15 23 0.0 11.3 0.56 0.76 0.76 89 1009.8
20260507142709 15 293 3.2 6.4 0.48 0.66 0.66 89 1009.8
20260507142209 16 270 3.2 6.4 0.38 0.56 0.56 88 1009.7
20260507141709 16 293 3.2 3.2 0.36 0.53 0.53 88 1009.8
20260507141209 16 270 3.2 11.3 0.23 0.43 0.43 87 1009.9
20260507140709 16 270 1.6 12.9 0.13 0.30 0.30 86 1009.8
20260507135709 16 113 1.6 17.7 0.00 0.18 0.18 84 1009.6
20260507135209 16 45 6.4 17.7 0.00 0.18 0.18 83 1009.4
20260507134709 17 45 3.2 17.7 0.00 0.18 0.18 83 1009.4
20260507134209 17 23 4.8 22.5 0.00 0.18 0.18 83 1009.4
20260507133709 17 45 8.0 22.5 0.00 0.18 0.18 82 1009.4
20260507132710 17 68 11.3 20.9 0.00 0.18 0.18 81 1009.5
20260507132209 17 23 8.0 14.5 0.00 0.18 0.18 82 1009.6
20260507131709 18 0 9.7 14.5 0.00 0.18 0.18 81 1009.7
20260507130709 17 0 9.7 17.7 0.00 0.18 0.18 79 1009.7
20260507130209 17 0 6.4 17.7 0.00 0.18 0.18 82 1009.9
20260507125709 16 23 9.7 12.9 0.00 0.18 0.18 84 1009.8
20260507125209 16 45 4.8 12.9 0.10 0.18 0.18 86 1010.0
20260507124709 16 23 4.8 12.9 0.18 0.18 0.18 87 1009.9
20260507124209 16 23 4.8 12.9 0.18 0.18 0.18 87 1010.1
20260507123709 16 23 6.4 12.9 0.18 0.18 0.18 88 1009.9
20260507122709 16 338 6.4 9.7 0.18 0.18 0.18 88 1010.2
20260507121709 16 338 6.4 17.7 0.18 0.18 0.18 88 1010.4
20260507121209 16 0 3.2 17.7 0.18 0.18 0.18 88 1010.4
20260507120709 16 338 8.0 17.7 0.18 0.18 0.18 87 1010.4
20260507120209 16 338 8.0 17.7 0.18 0.18 0.18 86 1010.2
20260507115709 16 338 8.0 17.7 0.15 0.15 0.15 84 1010.5
20260507115209 16 23 4.8 17.7 0.00 0.00 0.00 81 1010.4
20260507114709 17 45 8.0 17.7 0.00 0.00 0.00 78 1010.5
20260507114209 17 45 12.9 27.4 0.00 0.00 0.00 76 1010.5
20260507112709 17 23 17.7 24.1 0.00 0.00 0.00 76 1010.7
20260507112209 17 338 16.1 22.5 0.00 0.00 0.00 75 1010.2
20260507111709 17 338 12.9 22.5 0.00 0.00 0.00 77 1010.6
20260507111209 18 0 12.9 17.7 0.00 0.00 0.00 77 1010.5
20260507110209 19 270 6.4 14.5 0.00 0.00 0.00 72 1010.4
20260507105709 20 225 6.4 14.5 0.00 0.00 0.00 72 1010.3
20260507105209 20 68 6.4 17.7 0.00 0.00 0.00 75 1010.4
20260507103709 20 113 8.0 17.7 0.00 0.00 0.00 78 1010.7
20260507102709 19 68 6.4 17.7 0.00 0.00 0.00 81 1010.6
20260507102209 18 113 8.0 14.5 0.00 0.00 0.00 81 1010.6
20260507101710 18 135 6.4 17.7 0.00 0.00 0.00 80 1010.6
20260507101209 18 135 6.4 22.5 0.00 0.00 0.00 79 1010.5
20260507100710 19 68 6.4 22.5 0.00 0.00 0.00 79 1010.5
20260507100209 19 113 8.0 22.5 0.00 0.00 0.00 79 1010.5
20260507095209 19 158 6.4 17.7 0.00 0.00 0.00 78 1010.4
20260507094709 19 113 4.8 17.7 0.00 0.00 0.00 79 1010.4
20260507094209 18 113 9.7 20.9 0.00 0.00 0.00 77 1010.4
20260507093709 18 90 6.4 22.5 0.00 0.00 0.00 77 1010.5
20260507093209 18 90 12.9 22.5 0.00 0.00 0.00 78 1010.6
20260507092709 18 68 11.3 17.7 0.00 0.00 0.00 80 1010.7
20260507092209 18 68 4.8 17.7 0.00 0.00 0.00 79 1010.5
20260507091709 18 68 12.9 22.5 0.00 0.00 0.00 78 1010.5
20260507091209 19 68 9.7 22.5 0.00 0.00 0.00 78 1010.5
20260507090709 19 113 11.3 17.7 0.00 0.00 0.00 76 1010.6
20260507090209 20 90 8.0 17.7 0.00 0.00 0.00 75 1010.3
20260507085709 19 113 9.7 17.7 0.00 0.00 0.00 78 1010.4
20260507085209 19 135 9.7 17.7 0.00 0.00 0.00 78 1010.6
20260507084709 19 90 9.7 17.7 0.00 0.00 0.00 79 1010.3
20260507084209 19 113 9.7 17.7 0.00 0.00 0.00 79 1010.3
20260507083209 19 90 6.4 20.9 0.00 0.00 0.00 79 1010.5
20260507082709 19 90 9.7 20.9 0.00 0.00 0.00 79 1010.6
20260507082210 19 90 9.7 17.7 0.00 0.00 0.00 80 1010.5
20260507081209 19 90 8.0 17.7 0.00 0.00 0.00 79 1010.2
20260507080210 19 68 8.0 17.7 0.00 0.00 0.00 79 1010.3
20260507075709 19 68 8.0 17.7 0.00 0.00 0.00 80 1010.4
20260507075209 18 113 8.0 17.7 0.00 0.00 0.00 80 1010.7
20260507074709 18 113 11.3 17.7 0.00 0.00 0.00 80 1010.5
20260507074210 18 113 9.7 17.7 0.00 0.00 0.00 79 1010.4
20260507073209 18 90 8.0 17.7 0.00 0.00 0.00 79 1010.4
20260507072709 18 90 11.3 17.7 0.00 0.00 0.00 79 1010.3
20260507072209 18 90 6.4 14.5 0.00 0.00 0.00 79 1010.4
20260507071709 18 90 6.4 14.5 0.00 0.00 0.00 79 1010.3
20260507071209 18 90 4.8 17.7 0.00 0.00 0.00 80 1010.4
20260507070210 18 68 6.4 22.5 0.00 0.00 0.00 80 1010.4
20260507065710 18 113 6.4 22.5 0.00 0.00 0.00 80 1009.9
20260507065209 18 68 6.4 22.5 0.00 0.00 0.00 80 1010.0
20260507064209 18 68 9.7 17.7 0.00 0.00 0.00 80 1009.5
20260507063709 18 68 12.9 20.9 0.00 0.00 0.00 80 1009.8
20260507063209 18 90 12.9 20.9 0.00 0.00 0.00 81 1009.9
20260507062710 18 90 6.4 20.9 0.00 0.00 0.00 81 1010.1
20260507062209 18 45 11.3 17.7 0.00 0.00 0.00 81 1009.9
20260507061710 18 90 9.7 17.7 0.00 0.00 0.00 81 1009.7
20260507061209 18 68 8.0 17.7 0.00 0.00 0.00 81 1009.5
20260507060709 18 68 9.7 17.7 0.00 0.00 0.00 81 1009.7
20260507060209 18 113 8.0 17.7 0.00 0.00 0.00 81 1009.5
20260507055710 18 90 8.0 12.9 0.00 0.00 0.00 81 1009.4
20260507055209 18 68 6.4 0.0 0.00 0.00 0.00 82 1009.7
20260507053210 18 68 9.7 14.5 0.00 0.00 0.00 82 1009.6
20260507052710 18 68 9.7 17.7 0.00 0.00 0.00 82 1009.7
20260507052210 18 68 9.7 17.7 0.00 0.00 0.00 82 1009.5
20260507051709 18 90 8.0 17.7 0.00 0.00 0.00 82 1009.5
20260507050710 18 68 6.4 14.5 0.00 0.00 0.00 81 1009.4
20260507050210 18 68 6.4 17.7 0.00 0.00 0.00 81 1009.4
20260507045709 18 113 6.4 17.7 0.00 0.00 0.00 81 1009.2
20260507045209 18 45 9.7 17.7 0.00 0.00 0.00 81 1009.3
20260507044710 18 90 6.4 17.7 0.00 0.00 0.00 82 1009.0
20260507044210 18 45 9.7 17.7 0.00 0.00 0.00 82 1009.1
20260507043710 18 68 9.7 14.5 0.00 0.00 0.00 82 1009.0
20260507043209 18 90 8.0 14.5 0.00 0.00 0.00 81 1009.2
20260507042710 17 113 4.8 17.7 0.00 0.00 0.00 81 1009.1
20260507042209 18 90 9.7 17.7 0.00 0.00 0.00 81 1008.9
20260507041210 18 90 6.4 17.7 0.00 0.00 0.00 80 1009.2
20260507040709 18 45 8.0 17.7 0.00 0.00 0.00 80 1009.2
20260507040210 18 90 9.7 17.7 0.00 0.00 0.00 80 1009.0
20260507035709 18 68 12.9 14.5 0.00 0.00 0.00 80 1009.2
20260507035210 18 90 11.3 17.7 0.00 0.00 0.00 81 1009.3
20260507034710 18 68 9.7 17.7 0.00 0.00 0.00 81 1009.5
20260507034209 18 90 6.4 17.7 0.00 0.00 0.00 80 1009.3
20260507033710 18 68 6.4 17.7 0.00 0.00 0.00 80 1009.5
20260507033209 18 68 12.9 17.7 0.00 0.00 0.00 80 1009.1
20260507032710 18 68 11.3 17.7 0.00 0.00 0.00 80 1009.2
20260507032210 17 90 12.9 17.7 0.00 0.00 0.00 80 1008.9
20260507031209 18 90 9.7 14.5 0.00 0.00 0.00 80 1009.0
20260507030709 18 90 11.3 14.5 0.00 0.00 0.00 80 1009.1
20260507025709 18 90 6.4 17.7 0.00 0.00 0.00 80 1009.3
20260507025209 18 113 9.7 17.7 0.00 0.00 0.00 79 1009.3
20260507024710 18 68 11.3 17.7 0.00 0.00 0.00 79 1009.2
20260507024209 18 45 6.4 17.7 0.00 0.00 0.00 80 1009.5
20260507023709 18 68 9.7 17.7 0.00 0.00 0.00 80 1009.4
20260507023209 18 68 9.7 14.5 0.00 0.00 0.00 80 1009.5
20260507022709 18 45 9.7 12.9 0.00 0.00 0.00 80 1009.4
20260507021709 18 68 6.4 14.5 0.00 0.00 0.00 80 1009.8
20260507021209 18 68 6.4 17.7 0.00 0.00 0.00 80 1009.6
20260507020709 18 68 6.4 17.7 0.00 0.00 0.00 79 1009.7
20260507015210 18 68 8.0 0.0 0.00 0.00 0.00 80 1009.6
20260507011710 18 68 6.4 12.9 0.00 0.00 0.00 79 1010.3
20260507011210 18 68 6.4 12.9 0.00 0.00 0.00 79 1010.2
20260507010710 18 68 6.4 12.9 0.00 0.00 0.00 79 1010.2
20260507010210 18 68 6.4 12.9 0.00 0.00 0.00 78 1010.3
20260507005710 18 90 6.4 14.5 0.00 0.00 0.00 78 1010.4
20260507005209 18 68 6.4 14.5 0.00 0.00 0.00 79 1010.5
20260507004709 18 90 8.0 14.5 0.00 0.00 0.00 80 1010.2
20260507004209 18 45 6.4 14.5 0.00 0.00 0.00 80 1010.3
20260507003709 18 45 8.0 14.5 0.00 0.00 0.00 80 1010.2
20260507003209 18 68 8.0 14.5 0.00 0.00 0.00 80 1010.2
20260507002209 18 68 8.0 11.3 0.00 0.00 0.00 80 1009.9
20260507001209 17 68 6.4 9.7 0.00 0.00 0.00 81 1010.2
20260507000710 17 45 6.4 9.7 0.00 0.00 0.00 81 1010.2
20260506235710 17 45 3.2 6.4 0.00 0.00 0.00 81 1010.0
20260506235209 17 68 4.8 0.0 0.00 0.00 0.00 82 1010.2
20260506231209 15 270 0.0 0.0 0.00 0.00 0.00 82 1010.4
20260506230709 15 270 0.0 3.2 0.00 0.00 0.00 82 1010.4
20260506230210 15 270 0.0 3.2 0.00 0.00 0.00 82 1010.5
20260506225709 15 270 0.0 3.2 0.00 0.00 0.00 82 1010.7
20260506225209 16 180 0.0 3.2 0.00 0.00 0.00 81 1010.7
20260506224709 16 180 0.0 3.2 0.00 0.00 0.00 81 1010.5
20260506224209 16 180 1.6 3.2 0.00 0.00 0.00 81 1010.6
20260506223709 16 203 1.6 3.2 0.00 0.00 0.00 81 1010.5
20260506223210 16 180 1.6 3.2 0.00 0.00 0.00 81 1010.3
20260506222709 16 158 1.6 3.2 0.00 0.00 0.00 81 1010.6
20260506222209 17 135 0.0 3.2 0.00 0.00 0.00 81 1010.3
20260506221709 17 158 0.0 3.2 0.00 0.00 0.00 81 1010.4
20260506220709 17 158 0.0 3.2 0.00 0.00 0.00 80 1010.5
20260506220209 17 135 0.0 3.2 0.00 0.00 0.00 80 1010.3
20260506215709 17 113 1.6 3.2 0.00 0.00 0.00 80 1010.5
20260506215209 17 90 0.0 3.2 0.00 0.00 0.00 79 1010.6
20260506214709 17 113 1.6 3.2 0.00 0.00 0.00 79 1010.7
20260506214209 17 90 1.6 3.2 0.00 0.00 0.00 79 1010.7
20260506213709 17 113 0.0 3.2 0.00 0.00 0.00 79 1010.9
20260506212709 16 203 0.0 3.2 0.00 0.00 0.00 79 1011.0
20260506211709 17 225 1.6 3.2 0.00 0.00 0.00 79 1011.4
20260506211209 17 158 0.0 3.2 0.00 0.00 0.00 79 1011.1
20260506210710 17 158 0.0 3.2 0.00 0.00 0.00 78 1010.9
20260506205710 17 135 1.6 6.4 0.00 0.00 0.00 78 1010.9
20260506204710 17 113 0.0 3.2 0.00 0.00 0.00 78 1010.9
20260506204210 17 158 1.6 3.2 0.00 0.00 0.00 79 1010.8
20260506203710 17 158 0.0 3.2 0.00 0.00 0.00 79 1010.8
20260506203209 17 135 1.6 3.2 0.00 0.00 0.00 78 1010.8
20260506202709 17 135 1.6 6.4 0.00 0.00 0.00 78 1010.8
20260506201710 17 135 1.6 6.4 0.00 0.00 0.00 78 1010.8
20260506201210 17 135 3.2 6.4 0.00 0.00 0.00 78 1010.6
20260506200710 17 135 3.2 9.7 0.00 0.00 0.00 77 1010.7
20260506200209 17 90 0.0 9.7 0.00 0.00 0.00 77 1010.5
20260506195709 17 158 3.2 9.7 0.00 0.00 0.00 77 1010.2
20260506195209 17 113 3.2 6.4 0.00 0.00 0.00 78 1010.2
20260506194210 17 135 3.2 6.4 0.00 0.00 0.00 78 1010.2
20260506193710 17 90 3.2 11.3 0.00 0.00 0.00 77 1010.3
20260506193209 17 90 3.2 11.3 0.00 0.00 0.00 78 1010.1
20260506192210 17 135 1.6 9.7 0.00 0.00 0.00 77 1009.9
20260506191710 17 113 3.2 12.9 0.00 0.00 0.00 78 1009.7
20260506191210 17 135 3.2 12.9 0.00 0.00 0.00 77 1009.7
20260506190710 17 90 3.2 12.9 0.00 0.00 0.00 77 1009.8
20260506185710 17 90 3.2 14.5 0.00 0.00 0.00 77 1010.0
20260506185209 18 135 6.4 14.5 0.00 0.00 0.00 76 1009.9
20260506184709 18 90 3.2 14.5 0.00 0.00 0.00 76 1009.5
20260506184209 18 90 8.0 12.9 0.00 0.00 0.00 76 1009.8
20260506183709 18 113 4.8 17.7 0.00 0.00 0.00 76 1009.6
20260506183209 18 68 4.8 17.7 0.00 0.00 0.00 75 1009.5
20260506182709 18 113 3.2 17.7 0.00 0.00 0.00 75 1009.3
20260506181710 18 90 8.0 12.9 0.00 0.00 0.00 75 1009.4
20260506180210 18 113 4.8 17.7 0.00 0.00 0.00 75 1009.4
20260506175710 18 68 11.3 17.7 0.00 0.00 0.00 75 1009.4
20260506175210 18 113 4.8 14.5 0.00 0.00 0.00 75 1009.2
20260506174210 18 90 6.4 17.7 0.00 0.00 0.00 75 1009.3
20260506173709 18 135 8.0 17.7 0.00 0.00 0.00 75 1009.3
20260506173209 18 113 9.7 17.7 0.00 0.00 0.00 74 1009.4
20260506172709 18 90 8.0 17.7 0.00 0.00 0.00 74 1009.5
20260506171709 18 90 6.4 17.7 0.00 0.00 0.00 75 1009.2
20260506171210 18 90 6.4 17.7 0.00 0.00 0.00 75 1009.2
20260506170709 18 90 12.9 22.5 0.00 0.00 0.00 75 1009.2
20260506165709 18 113 11.3 22.5 0.00 0.00 0.00 75 1009.5
20260506165209 19 90 9.7 22.5 0.00 0.00 0.00 75 1009.4
20260506164709 19 90 12.9 22.5 0.00 0.00 0.00 75 1009.4
20260506164209 19 90 9.7 22.5 0.00 0.00 0.00 74 1009.3
20260506163709 18 90 12.9 22.5 0.00 0.00 0.00 74 1009.2
20260506163209 19 68 11.3 22.5 0.00 0.00 0.00 74 1009.3
20260506162210 19 68 12.9 22.5 0.00 0.00 0.00 73 1009.5
20260506161709 19 90 12.9 22.5 0.00 0.00 0.00 74 1009.3
20260506160710 19 68 12.9 24.1 0.00 0.00 0.00 73 1009.3
20260506160209 19 90 12.9 24.1 0.00 0.00 0.00 73 1009.3